Time,TemperatureF,DewpointF,PressureIn,WindDirection,WindDirectionDegrees,WindSpeedMPH,WindSpeedGustMPH,Humidity,HourlyPrecipIn,Conditions,Clouds,dailyrainin,SoftwareType,DateUTC
2013-09-02 00:00:00,70.6,65.7,29.93,NW,308,0.0,0.0,84,0.00,,---,0.00,VWS V12.07,2013-09-02 07:00:00,
2013-09-02 00:02:00,70.6,65.7,29.94,NW,308,0.0,0.0,84,0.00,,---,0.00,VWS V12.07,2013-09-02 07:02:00,
2013-09-02 00:07:00,70.3,65.3,29.94,NW,308,0.0,0.0,84,0.00,,---,0.00,VWS V12.07,2013-09-02 07:07:00,
2013-09-02 00:12:00,70.3,65.1,29.94,NW,308,0.0,0.0,84,0.00,,---,0.00,VWS V12.07,2013-09-02 07:12:00,
2013-09-02 00:17:00,70.2,64.9,29.94,NW,308,0.0,0.0,83,0.00,,---,0.00,VWS V12.07,2013-09-02 07:17:00,
2013-09-02 00:22:00,70.1,64.8,29.94,NW,308,0.0,0.0,83,0.00,,---,0.00,VWS V12.07,2013-09-02 07:22:00,
2013-09-02 00:27:00,69.9,64.6,29.93,NW,308,0.0,0.0,83,0.00,,---,0.00,VWS V12.07,2013-09-02 07:27:00,
2013-09-02 00:30:00,69.8,64.5,29.93,NW,308,0.0,0.0,83,0.00,,---,0.00,VWS V12.07,2013-09-02 07:30:00,
2013-09-02 00:32:00,69.8,64.8,29.94,NW,308,0.0,0.0,84,0.00,,---,0.00,VWS V12.07,2013-09-02 07:32:00,
2013-09-02 00:37:00,69.8,65.0,29.94,NW,308,0.0,0.0,85,0.00,,---,0.00,VWS V12.07,2013-09-02 07:37:00,
2013-09-02 00:42:00,69.9,65.2,29.94,NW,308,0.0,0.0,85,0.00,,---,0.00,VWS V12.07,2013-09-02 07:42:00,
2013-09-02 00:47:00,69.8,65.3,29.93,NW,308,0.0,0.0,86,0.00,,---,0.00,VWS V12.07,2013-09-02 07:47:00,
2013-09-02 00:52:00,69.6,65.1,29.94,NW,308,0.0,0.0,86,0.00,,---,0.00,VWS V12.07,2013-09-02 07:52:00,
2013-09-02 00:57:00,69.7,65.3,29.94,NW,308,0.0,0.0,86,0.00,,---,0.00,VWS V12.07,2013-09-02 07:57:00,
2013-09-02 01:00:00,69.7,65.3,29.94,NW,308,0.0,0.0,86,0.00,,---,0.00,VWS V12.07,2013-09-02 08:00:00,
2013-09-02 01:02:00,69.6,65.3,29.94,NW,308,0.0,0.0,86,0.00,,---,0.00,VWS V12.07,2013-09-02 08:02:00,
2013-09-02 01:07:00,69.6,65.3,29.94,NW,308,0.0,0.0,86,0.00,,---,0.00,VWS V12.07,2013-09-02 08:07:00,
2013-09-02 01:12:00,69.5,65.2,29.94,NW,308,0.0,0.0,86,0.00,,---,0.00,VWS V12.07,2013-09-02 08:12:00,
2013-09-02 01:17:00,69.5,65.3,29.94,NW,308,0.0,0.0,87,0.00,,---,0.00,VWS V12.07,2013-09-02 08:17:00,
2013-09-02 01:22:00,69.5,65.5,29.94,NW,308,0.0,0.0,87,0.00,,---,0.00,VWS V12.07,2013-09-02 08:22:00,
2013-09-02 01:27:00,69.2,65.3,29.94,NW,308,0.0,0.0,88,0.00,,---,0.00,VWS V12.07,2013-09-02 08:27:00,
2013-09-02 01:30:00,69.3,65.5,29.94,NW,308,0.0,0.0,88,0.00,,---,0.00,VWS V12.07,2013-09-02 08:30:00,
2013-09-02 01:32:00,69.2,65.5,29.94,NW,308,0.0,0.0,88,0.00,,---,0.00,VWS V12.07,2013-09-02 08:32:00,
2013-09-02 01:37:00,69.0,65.3,29.94,NW,308,0.0,0.0,88,0.00,,---,0.00,VWS V12.07,2013-09-02 08:37:00,
2013-09-02 01:42:00,69.0,65.4,29.94,NW,308,0.0,0.0,88,0.00,,---,0.00,VWS V12.07,2013-09-02 08:42:00,
2013-09-02 01:47:00,68.9,65.3,29.94,NW,308,0.0,0.0,88,0.00,,---,0.00,VWS V12.07,2013-09-02 08:47:00,
2013-09-02 01:52:00,68.8,65.4,29.94,NW,308,0.0,0.0,89,0.00,,---,0.00,VWS V12.07,2013-09-02 08:52:00,
2013-09-02 01:57:00,68.6,65.3,29.95,NW,308,0.0,0.0,89,0.00,,---,0.00,VWS V12.07,2013-09-02 08:57:00,
2013-09-02 02:00:00,68.7,65.4,29.95,NW,308,0.0,0.0,89,0.00,,---,0.00,VWS V12.07,2013-09-02 09:00:00,
2013-09-02 02:02:00,68.7,65.5,29.94,NW,308,0.0,0.0,90,0.00,,---,0.00,VWS V12.07,2013-09-02 09:02:00,
2013-09-02 02:07:00,68.6,65.5,29.94,NW,308,0.0,0.0,90,0.00,,---,0.00,VWS V12.07,2013-09-02 09:07:00,
2013-09-02 02:12:00,68.5,65.4,29.94,NW,308,0.0,0.0,90,0.00,,---,0.00,VWS V12.07,2013-09-02 09:12:00,
2013-09-02 02:17:00,68.4,65.2,29.94,NW,308,0.0,0.0,90,0.00,,---,0.00,VWS V12.07,2013-09-02 09:17:00,
2013-09-02 02:22:00,68.4,65.2,29.94,NW,308,0.0,0.0,90,0.00,,---,0.00,VWS V12.07,2013-09-02 09:22:00,
2013-09-02 02:27:00,68.4,65.1,29.94,NW,308,0.0,0.0,89,0.00,,---,0.00,VWS V12.07,2013-09-02 09:27:00,
2013-09-02 02:30:00,68.4,65.1,29.94,NW,308,0.0,0.0,89,0.00,,---,0.00,VWS V12.07,2013-09-02 09:30:00,
2013-09-02 02:32:00,68.4,65.0,29.94,NW,308,0.0,0.0,89,0.00,,---,0.00,VWS V12.07,2013-09-02 09:32:00,
2013-09-02 02:37:00,68.4,65.0,29.94,NW,308,0.0,0.0,89,0.00,,---,0.00,VWS V12.07,2013-09-02 09:37:00,
2013-09-02 02:42:00,68.5,65.1,29.94,NW,308,0.0,0.0,89,0.00,,---,0.00,VWS V12.07,2013-09-02 09:42:00,
2013-09-02 02:47:00,68.7,65.1,29.93,NW,308,0.0,0.0,88,0.00,,---,0.00,VWS V12.07,2013-09-02 09:47:00,
2013-09-02 02:52:00,69.0,65.3,29.93,NW,308,0.0,0.0,88,0.00,,---,0.00,VWS V12.07,2013-09-02 09:52:00,
2013-09-02 02:57:00,68.7,65.1,29.93,NW,308,0.0,0.0,88,0.00,,---,0.00,VWS V12.07,2013-09-02 09:57:00,
2013-09-02 03:00:00,68.7,65.1,29.93,NW,308,0.0,0.0,88,0.00,,---,0.00,VWS V12.07,2013-09-02 10:00:00,
2013-09-02 03:02:00,68.7,65.1,29.93,NW,308,0.0,0.0,88,0.00,,---,0.00,VWS V12.07,2013-09-02 10:02:00,
2013-09-02 03:07:00,68.5,65.0,29.93,NW,308,0.0,0.0,88,0.00,,---,0.00,VWS V12.07,2013-09-02 10:07:00,
2013-09-02 03:12:00,68.5,65.0,29.93,NW,308,0.0,0.0,89,0.00,,---,0.00,VWS V12.07,2013-09-02 10:12:00,
2013-09-02 03:18:00,68.4,65.0,29.93,NW,308,0.0,0.0,89,0.00,,---,0.00,VWS V12.07,2013-09-02 10:18:00,
2013-09-02 03:23:00,68.1,64.7,29.94,NW,308,0.0,0.0,89,0.00,,---,0.00,VWS V12.07,2013-09-02 10:23:00,
2013-09-02 03:28:00,67.9,64.6,29.94,NW,308,0.0,0.0,89,0.00,,---,0.00,VWS V12.07,2013-09-02 10:28:00,
2013-09-02 03:30:00,68.1,64.8,29.94,NW,308,0.0,0.0,89,0.00,,---,0.00,VWS V12.07,2013-09-02 10:30:00,
2013-09-02 03:33:00,67.9,64.7,29.94,NW,308,0.0,0.0,90,0.00,,---,0.00,VWS V12.07,2013-09-02 10:33:00,
2013-09-02 03:38:00,67.8,64.7,29.94,NW,308,0.0,0.0,90,0.00,,---,0.00,VWS V12.07,2013-09-02 10:38:00,
2013-09-02 03:43:00,67.9,64.8,29.93,NW,308,0.0,0.0,90,0.00,,---,0.00,VWS V12.07,2013-09-02 10:43:00,
2013-09-02 03:48:00,67.9,64.8,29.93,NW,308,0.0,0.0,90,0.00,,---,0.00,VWS V12.07,2013-09-02 10:48:00,
2013-09-02 03:53:00,67.9,64.7,29.93,NW,308,0.0,0.0,90,0.00,,---,0.00,VWS V12.07,2013-09-02 10:53:00,
2013-09-02 03:58:00,67.9,64.7,29.93,NW,308,0.0,0.0,89,0.00,,---,0.00,VWS V12.07,2013-09-02 10:58:00,
2013-09-02 04:00:00,68.0,64.8,29.93,NW,308,0.0,0.0,89,0.00,,---,0.00,VWS V12.07,2013-09-02 11:00:00,
2013-09-02 04:03:00,67.9,64.6,29.93,NW,308,0.0,0.0,89,0.00,,---,0.00,VWS V12.07,2013-09-02 11:03:00,
2013-09-02 04:08:00,68.0,64.7,29.93,NW,308,0.0,0.0,89,0.00,,---,0.00,VWS V12.07,2013-09-02 11:08:00,
2013-09-02 04:13:00,67.9,64.5,29.93,NW,308,0.0,0.0,89,0.00,,---,0.00,VWS V12.07,2013-09-02 11:13:00,
2013-09-02 04:18:00,67.9,64.6,29.93,NW,308,0.0,0.0,89,0.00,,---,0.00,VWS V12.07,2013-09-02 11:18:00,
2013-09-02 04:23:00,68.0,64.7,29.93,NW,308,0.0,0.0,89,0.00,,---,0.00,VWS V12.07,2013-09-02 11:23:00,
2013-09-02 04:28:00,67.8,64.5,29.94,NW,308,0.0,0.0,89,0.00,,---,0.00,VWS V12.07,2013-09-02 11:28:00,
2013-09-02 04:30:00,67.4,64.1,29.94,NW,308,0.0,0.0,89,0.00,,---,0.00,VWS V12.07,2013-09-02 11:30:00,
2013-09-02 04:33:00,67.6,64.3,29.93,NW,308,0.0,0.0,89,0.00,,---,0.00,VWS V12.07,2013-09-02 11:33:00,
2013-09-02 04:38:00,67.7,64.4,29.93,NW,308,0.0,0.0,89,0.00,,---,0.00,VWS V12.07,2013-09-02 11:38:00,
2013-09-02 04:43:00,67.7,64.3,29.93,NW,308,0.0,0.0,89,0.00,,---,0.00,VWS V12.07,2013-09-02 11:43:00,
2013-09-02 04:48:00,67.7,64.3,29.93,NW,308,0.0,0.0,89,0.00,,---,0.00,VWS V12.07,2013-09-02 11:48:00,
2013-09-02 04:53:00,67.4,63.9,29.93,NW,308,0.0,0.0,88,0.00,,---,0.00,VWS V12.07,2013-09-02 11:53:00,
2013-09-02 04:58:00,67.5,63.9,29.93,NW,308,0.0,0.0,88,0.00,,---,0.00,VWS V12.07,2013-09-02 11:58:00,
2013-09-02 05:00:00,67.4,63.8,29.93,NW,308,0.0,0.0,88,0.00,,---,0.00,VWS V12.07,2013-09-02 12:00:00,
2013-09-02 05:03:00,67.6,64.0,29.93,NW,308,0.0,0.0,88,0.00,,---,0.00,VWS V12.07,2013-09-02 12:03:00,
2013-09-02 05:08:00,67.5,63.9,29.93,NW,308,0.0,0.0,88,0.00,,---,0.00,VWS V12.07,2013-09-02 12:08:00,
2013-09-02 05:13:00,67.5,63.9,29.94,NW,308,0.0,0.0,88,0.00,,---,0.00,VWS V12.07,2013-09-02 12:13:00,
2013-09-02 05:18:00,67.7,64.1,29.94,NW,308,0.0,0.0,88,0.00,,---,0.00,VWS V12.07,2013-09-02 12:18:00,
2013-09-02 05:23:00,67.4,63.8,29.94,NW,308,0.0,0.0,88,0.00,,---,0.00,VWS V12.07,2013-09-02 12:23:00,
2013-09-02 05:28:00,67.4,63.8,29.94,NW,308,0.0,0.0,88,0.00,,---,0.00,VWS V12.07,2013-09-02 12:28:00,
2013-09-02 05:30:00,67.3,63.7,29.94,NW,308,0.0,0.0,88,0.00,,---,0.00,VWS V12.07,2013-09-02 12:30:00,
2013-09-02 05:33:00,67.2,63.7,29.94,NW,308,0.0,0.0,88,0.00,,---,0.00,VWS V12.07,2013-09-02 12:33:00,
2013-09-02 05:38:00,67.0,63.6,29.94,NW,308,0.0,0.0,89,0.00,,---,0.00,VWS V12.07,2013-09-02 12:38:00,
2013-09-02 05:43:00,66.9,63.6,29.94,NW,308,0.0,0.0,89,0.00,,---,0.00,VWS V12.07,2013-09-02 12:43:00,
2013-09-02 05:48:00,66.9,63.7,29.95,NW,308,0.0,0.0,90,0.00,,---,0.00,VWS V12.07,2013-09-02 12:48:00,
2013-09-02 05:53:00,66.7,63.6,29.95,NW,308,0.0,0.0,90,0.00,,---,0.00,VWS V12.07,2013-09-02 12:53:00,
2013-09-02 05:58:00,66.6,63.5,29.95,NW,308,0.0,0.0,90,0.00,,---,0.00,VWS V12.07,2013-09-02 12:58:00,
2013-09-02 06:00:00,66.8,63.8,29.95,NW,308,0.0,0.0,90,0.00,,---,0.00,VWS V12.07,2013-09-02 13:00:00,
2013-09-02 06:03:00,66.5,63.5,29.95,NW,308,0.0,0.0,90,0.00,,---,0.00,VWS V12.07,2013-09-02 13:03:00,
2013-09-02 06:08:00,66.6,63.7,29.95,NW,308,0.0,0.0,90,0.00,,---,0.00,VWS V12.07,2013-09-02 13:08:00,
2013-09-02 06:13:00,66.7,63.8,29.95,NW,308,0.0,0.0,90,0.00,,---,0.00,VWS V12.07,2013-09-02 13:13:00,
2013-09-02 06:18:00,66.7,63.8,29.96,NW,308,0.0,0.0,90,0.00,,---,0.00,VWS V12.07,2013-09-02 13:18:00,
2013-09-02 06:23:00,66.6,63.7,29.95,NW,308,0.0,0.0,90,0.00,,---,0.00,VWS V12.07,2013-09-02 13:23:00,
2013-09-02 06:28:00,66.8,63.9,29.96,NW,308,0.0,0.0,90,0.00,,---,0.00,VWS V12.07,2013-09-02 13:28:00,
2013-09-02 06:30:00,66.8,63.9,29.96,NW,308,0.0,0.0,90,0.00,,---,0.00,VWS V12.07,2013-09-02 13:30:00,
2013-09-02 06:33:00,67.0,64.2,29.96,NW,308,0.0,0.0,91,0.00,,---,0.00,VWS V12.07,2013-09-02 13:33:00,
2013-09-02 06:38:00,66.9,64.0,29.97,NW,308,0.0,0.0,90,0.00,,---,0.00,VWS V12.07,2013-09-02 13:38:00,
2013-09-02 06:43:00,67.2,64.2,29.97,NW,308,0.0,0.0,90,0.00,,---,0.00,VWS V12.07,2013-09-02 13:43:00,
2013-09-02 06:48:00,67.4,64.2,29.97,NW,308,0.0,0.0,89,0.00,,---,0.00,VWS V12.07,2013-09-02 13:48:00,
2013-09-02 06:53:00,68.0,64.4,29.97,NW,308,0.0,0.0,88,0.00,,---,0.00,VWS V12.07,2013-09-02 13:53:00,
2013-09-02 06:58:00,68.1,64.2,29.97,NW,308,0.0,0.0,87,0.00,,---,0.00,VWS V12.07,2013-09-02 13:58:00,
2013-09-02 07:00:00,68.4,64.5,29.97,NW,308,0.0,0.0,87,0.00,,---,0.00,VWS V12.07,2013-09-02 14:00:00,
2013-09-02 07:03:00,68.5,64.3,29.97,NW,308,0.0,0.0,86,0.00,,---,0.00,VWS V12.07,2013-09-02 14:03:00,
2013-09-02 07:08:00,69.0,64.5,29.97,NW,308,0.0,0.0,86,0.00,,---,0.00,VWS V12.07,2013-09-02 14:08:00,
2013-09-02 07:13:00,69.4,64.6,29.97,NW,308,0.0,0.0,85,0.00,,---,0.00,VWS V12.07,2013-09-02 14:13:00,
2013-09-02 07:18:00,69.8,64.5,29.97,North,0,3.0,4.2,83,0.00,,---,0.00,VWS V12.07,2013-09-02 14:18:00,
2013-09-02 07:23:00,70.2,64.3,29.97,NNW,346,3.0,4.8,82,0.00,,---,0.00,VWS V12.07,2013-09-02 14:23:00,
2013-09-02 07:28:00,70.2,64.2,29.97,North,7,0.0,5.3,81,0.00,,---,0.00,VWS V12.07,2013-09-02 14:28:00,
2013-09-02 07:30:00,70.4,64.4,29.97,North,7,0.0,5.3,81,0.00,,---,0.00,VWS V12.07,2013-09-02 14:30:00,
2013-09-02 07:33:00,70.7,64.3,29.97,NW,326,0.0,5.3,80,0.00,,---,0.00,VWS V12.07,2013-09-02 14:33:00,
2013-09-02 07:38:00,71.0,64.4,29.97,NNE,31,3.0,6.7,80,0.00,,---,0.00,VWS V12.07,2013-09-02 14:38:00,
2013-09-02 07:43:00,71.5,64.6,29.97,North,359,0.0,6.7,79,0.00,,---,0.00,VWS V12.07,2013-09-02 14:43:00,
2013-09-02 07:48:00,71.7,64.6,29.97,NNE,20,0.0,6.7,78,0.00,,---,0.00,VWS V12.07,2013-09-02 14:48:00,
2013-09-02 07:53:00,72.2,64.8,29.97,NNE,20,0.0,6.7,78,0.00,,---,0.00,VWS V12.07,2013-09-02 14:53:00,
2013-09-02 07:58:00,72.6,64.5,29.97,NNW,343,4.2,6.7,76,0.00,,---,0.00,VWS V12.07,2013-09-02 14:58:00,
2013-09-02 08:00:00,72.6,64.5,29.97,NNW,335,7.3,8.1,76,0.00,,---,0.00,VWS V12.07,2013-09-02 15:00:00,
2013-09-02 08:03:00,72.8,64.3,29.97,NE,39,0.0,8.1,75,0.00,,---,0.00,VWS V12.07,2013-09-02 15:03:00,
2013-09-02 08:08:00,73.1,64.3,29.97,NW,325,0.0,8.1,74,0.00,,---,0.00,VWS V12.07,2013-09-02 15:08:00,
2013-09-02 08:13:00,73.8,64.7,29.97,North,359,4.6,8.1,73,0.00,,---,0.00,VWS V12.07,2013-09-02 15:13:00,
2013-09-02 08:18:00,73.8,64.4,29.97,North,359,0.0,8.1,72,0.00,,---,0.00,VWS V12.07,2013-09-02 15:18:00,
2013-09-02 08:23:00,74.1,64.2,29.97,NNW,340,0.0,8.1,71,0.00,,---,0.00,VWS V12.07,2013-09-02 15:23:00,
2013-09-02 08:28:00,74.5,64.4,29.98,North,359,0.0,8.1,71,0.00,,---,0.00,VWS V12.07,2013-09-02 15:28:00,
2013-09-02 08:30:00,74.6,64.5,29.98,North,359,0.0,8.0,71,0.00,,---,0.00,VWS V12.07,2013-09-02 15:30:00,
2013-09-02 08:33:00,75.0,64.3,29.98,North,352,0.0,8.1,69,0.00,,---,0.00,VWS V12.07,2013-09-02 15:33:00,
2013-09-02 08:38:00,75.2,63.9,29.98,North,1,3.1,8.1,68,0.00,,---,0.00,VWS V12.07,2013-09-02 15:38:00,
2013-09-02 08:43:00,75.8,64.1,29.98,North,359,0.0,8.1,67,0.00,,---,0.00,VWS V12.07,2013-09-02 15:43:00,
2013-09-02 08:48:00,76.2,64.2,29.98,NNW,343,5.7,8.1,66,0.00,,---,0.00,VWS V12.07,2013-09-02 15:48:00,
2013-09-02 08:53:00,76.7,64.2,29.99,NW,323,0.0,6.6,65,0.00,,---,0.00,VWS V12.07,2013-09-02 15:53:00,
2013-09-02 08:58:00,76.9,63.8,29.99,North,352,7.4,7.4,64,0.00,,---,0.00,VWS V12.07,2013-09-02 15:58:00,
2013-09-02 09:00:00,77.1,64.0,29.99,North,7,5.0,7.8,64,0.00,,---,0.00,VWS V12.07,2013-09-02 16:00:00,
2013-09-02 09:03:00,77.7,63.9,29.99,NW,309,5.2,7.8,62,0.00,,---,0.00,VWS V12.07,2013-09-02 16:03:00,
2013-09-02 09:08:00,78.0,63.7,29.99,North,359,0.0,7.8,62,0.00,,---,0.00,VWS V12.07,2013-09-02 16:08:00,
2013-09-02 09:13:00,78.2,63.5,29.99,NE,41,0.0,7.8,61,0.00,,---,0.00,VWS V12.07,2013-09-02 16:13:00,
2013-09-02 09:18:00,78.9,63.7,29.99,NE,41,0.0,7.8,60,0.00,,---,0.00,VWS V12.07,2013-09-02 16:18:00,
2013-09-02 09:23:00,79.4,63.8,29.99,NNE,25,0.0,7.8,59,0.00,,---,0.00,VWS V12.07,2013-09-02 16:23:00,
2013-09-02 09:28:00,79.8,63.6,29.99,NE,53,0.0,7.8,58,0.00,,---,0.00,VWS V12.07,2013-09-02 16:28:00,
2013-09-02 09:30:00,79.9,63.7,29.99,NE,53,0.0,6.3,58,0.00,,---,0.00,VWS V12.07,2013-09-02 16:30:00,
2013-09-02 09:33:00,80.2,64.0,29.99,NNE,22,0.0,7.8,58,0.00,,---,0.00,VWS V12.07,2013-09-02 16:33:00,
2013-09-02 09:38:00,80.5,63.4,29.99,NE,49,0.0,7.8,56,0.00,,---,0.00,VWS V12.07,2013-09-02 16:38:00,
2013-09-02 09:43:00,81.4,63.7,29.99,NE,49,3.1,7.8,55,0.00,,---,0.00,VWS V12.07,2013-09-02 16:43:00,
2013-09-02 09:48:00,81.8,63.7,29.99,NNE,14,0.0,7.8,54,0.00,,---,0.00,VWS V12.07,2013-09-02 16:48:00,
2013-09-02 09:53:00,82.2,63.7,29.99,NNE,14,0.0,6.8,54,0.00,,---,0.00,VWS V12.07,2013-09-02 16:53:00,
2013-09-02 09:58:00,82.4,63.3,29.98,NNE,14,0.0,6.8,52,0.00,,---,0.00,VWS V12.07,2013-09-02 16:58:00,
2013-09-02 10:00:00,82.4,63.4,29.98,NNE,14,0.0,6.8,53,0.00,,---,0.00,VWS V12.07,2013-09-02 17:00:00,
2013-09-02 10:03:00,82.8,63.1,29.98,NE,55,0.0,6.8,51,0.00,,---,0.00,VWS V12.07,2013-09-02 17:03:00,
2013-09-02 10:08:00,83.0,62.8,29.98,NNE,17,0.0,6.8,50,0.00,,---,0.00,VWS V12.07,2013-09-02 17:08:00,
2013-09-02 10:13:00,83.4,63.0,29.98,NNE,17,0.0,6.8,50,0.00,,---,0.00,VWS V12.07,2013-09-02 17:13:00,
2013-09-02 10:18:00,83.5,62.9,29.98,North,357,3.0,6.8,50,0.00,,---,0.00,VWS V12.07,2013-09-02 17:18:00,
2013-09-02 10:23:00,83.8,63.1,29.98,North,357,0.0,6.8,50,0.00,,---,0.00,VWS V12.07,2013-09-02 17:23:00,
2013-09-02 10:28:00,84.0,63.2,29.97,NE,37,0.0,7.0,50,0.00,,---,0.00,VWS V12.07,2013-09-02 17:28:00,
2013-09-02 10:30:00,84.1,63.2,29.97,NE,37,0.0,7.0,50,0.00,,---,0.00,VWS V12.07,2013-09-02 17:30:00,
2013-09-02 10:33:00,84.4,63.5,29.97,NE,45,0.0,7.3,50,0.00,,---,0.00,VWS V12.07,2013-09-02 17:33:00,
2013-09-02 10:38:00,84.5,63.2,29.97,NNE,13,0.0,7.3,49,0.00,,---,0.00,VWS V12.07,2013-09-02 17:38:00,
2013-09-02 10:43:00,85.2,63.0,29.96,NNW,335,0.0,7.3,47,0.00,,---,0.00,VWS V12.07,2013-09-02 17:43:00,
2013-09-02 10:48:00,85.6,63.6,29.96,NE,42,4.3,7.3,48,0.00,,---,0.00,VWS V12.07,2013-09-02 17:48:00,
2013-09-02 10:53:00,85.9,63.3,29.96,NNE,28,0.0,7.3,47,0.00,,---,0.00,VWS V12.07,2013-09-02 17:53:00,
2013-09-02 10:58:00,86.3,64.0,29.96,NE,55,0.0,7.3,47,0.00,,---,0.00,VWS V12.07,2013-09-02 17:58:00,
2013-09-02 11:00:00,86.4,64.0,29.96,NE,55,0.0,7.3,47,0.00,,---,0.00,VWS V12.07,2013-09-02 18:00:00,
2013-09-02 11:03:00,86.7,63.5,29.96,ENE,62,0.0,7.3,46,0.00,,---,0.00,VWS V12.07,2013-09-02 18:03:00,
2013-09-02 11:08:00,86.9,63.5,29.96,NNE,30,4.3,7.3,46,0.00,,---,0.00,VWS V12.07,2013-09-02 18:08:00,
2013-09-02 11:13:00,87.2,63.5,29.96,NE,39,0.0,7.3,45,0.00,,---,0.00,VWS V12.07,2013-09-02 18:13:00,
2013-09-02 11:18:00,87.5,63.6,29.96,ENE,58,4.8,8.3,45,0.00,,---,0.00,VWS V12.07,2013-09-02 18:18:00,
2013-09-02 11:23:00,87.4,63.3,29.95,NNE,20,0.0,8.3,45,0.00,,---,0.00,VWS V12.07,2013-09-02 18:23:00,
2013-09-02 11:28:00,87.5,63.2,29.95,NE,42,0.0,8.3,44,0.00,,---,0.00,VWS V12.07,2013-09-02 18:28:00,
2013-09-02 11:30:00,87.5,63.2,29.95,NE,42,0.0,8.3,44,0.00,,---,0.00,VWS V12.07,2013-09-02 18:30:00,
2013-09-02 11:33:00,88.1,62.9,29.95,NNE,24,0.0,8.3,43,0.00,,---,0.00,VWS V12.07,2013-09-02 18:33:00,
2013-09-02 11:38:00,89.0,62.1,29.95,NE,41,0.0,8.3,41,0.00,,---,0.00,VWS V12.07,2013-09-02 18:38:00,
2013-09-02 11:43:00,89.4,62.1,29.95,NE,37,3.2,8.3,40,0.00,,---,0.00,VWS V12.07,2013-09-02 18:43:00,
2013-09-02 11:48:00,89.3,61.9,29.95,NNE,20,0.0,8.3,40,0.00,,---,0.00,VWS V12.07,2013-09-02 18:48:00,
2013-09-02 11:53:00,89.6,61.2,29.95,NNE,21,0.0,5.5,39,0.00,,---,0.00,VWS V12.07,2013-09-02 18:53:00,
2013-09-02 11:58:00,89.7,60.5,29.95,NNE,21,0.0,5.5,38,0.00,,---,0.00,VWS V12.07,2013-09-02 18:58:00,
2013-09-02 12:00:00,89.8,60.6,29.95,NNE,21,0.0,5.5,38,0.00,,---,0.00,VWS V12.07,2013-09-02 19:00:00,
2013-09-02 12:03:00,90.1,61.5,29.95,NNE,21,0.0,5.5,39,0.00,,---,0.00,VWS V12.07,2013-09-02 19:03:00,
2013-09-02 12:08:00,90.6,61.4,29.94,NE,52,0.0,5.5,38,0.00,,---,0.00,VWS V12.07,2013-09-02 19:08:00,
2013-09-02 12:13:00,90.9,61.0,29.94,NE,35,0.0,5.7,37,0.00,,---,0.00,VWS V12.07,2013-09-02 19:13:00,
2013-09-02 12:18:00,91.3,61.3,29.94,NE,34,0.0,5.7,37,0.00,,---,0.00,VWS V12.07,2013-09-02 19:18:00,
2013-09-02 12:23:00,91.8,60.9,29.93,NNW,330,0.0,5.7,36,0.00,,---,0.00,VWS V12.07,2013-09-02 19:23:00,
2013-09-02 12:28:00,92.2,61.6,29.93,East,89,0.0,5.7,36,0.00,,---,0.00,VWS V12.07,2013-09-02 19:28:00,
2013-09-02 12:30:00,92.2,61.6,29.93,East,89,0.0,5.7,36,0.00,,---,0.00,VWS V12.07,2013-09-02 19:30:00,
2013-09-02 12:33:00,92.4,61.3,29.92,North,350,0.0,5.8,36,0.00,,---,0.00,VWS V12.07,2013-09-02 19:33:00,
2013-09-02 12:38:00,92.5,61.4,29.92,NE,52,0.0,6.1,36,0.00,,---,0.00,VWS V12.07,2013-09-02 19:38:00,
2013-09-02 12:43:00,92.1,61.2,29.92,WNW,294,0.0,7.8,36,0.00,,---,0.00,VWS V12.07,2013-09-02 19:43:00,
2013-09-02 12:48:00,92.2,61.0,29.92,NNW,342,0.0,7.8,36,0.00,,---,0.00,VWS V12.07,2013-09-02 19:48:00,
2013-09-02 12:53:00,92.0,61.6,29.92,West,276,0.0,7.8,36,0.00,,---,0.00,VWS V12.07,2013-09-02 19:53:00,
2013-09-02 12:58:00,91.2,60.9,29.92,ENE,58,1.2,7.8,36,0.00,,---,0.00,VWS V12.07,2013-09-02 19:58:00,
2013-09-02 13:00:00,91.2,60.9,29.92,ENE,76,3.2,7.8,36,0.00,,---,0.00,VWS V12.07,2013-09-02 20:00:00,
2013-09-02 13:03:00,91.3,61.2,29.92,NE,52,0.0,7.8,37,0.00,,---,0.00,VWS V12.07,2013-09-02 20:03:00,
2013-09-02 13:08:00,91.6,61.3,29.92,ENE,70,0.0,7.8,36,0.00,,---,0.00,VWS V12.07,2013-09-02 20:08:00,
2013-09-02 13:13:00,91.7,61.8,29.92,North,357,0.0,7.8,37,0.00,,---,0.00,VWS V12.07,2013-09-02 20:13:00,
2013-09-02 13:18:00,91.6,61.5,29.92,East,87,0.0,7.8,37,0.00,,---,0.00,VWS V12.07,2013-09-02 20:18:00,
2013-09-02 13:23:00,90.9,61.3,29.92,East,87,0.0,7.8,37,0.00,,---,0.00,VWS V12.07,2013-09-02 20:23:00,
2013-09-02 13:28:00,90.8,61.4,29.92,East,87,0.0,7.8,38,0.00,,---,0.00,VWS V12.07,2013-09-02 20:28:00,
2013-09-02 13:30:00,90.6,61.2,29.92,East,87,0.0,5.3,38,0.00,,---,0.00,VWS V12.07,2013-09-02 20:30:00,
2013-09-02 13:33:00,90.7,61.5,29.92,East,87,0.0,7.8,38,0.00,,---,0.00,VWS V12.07,2013-09-02 20:33:00,
2013-09-02 13:38:00,90.7,61.2,29.92,East,87,0.0,7.8,37,0.00,,---,0.00,VWS V12.07,2013-09-02 20:38:00,
2013-09-02 13:43:00,90.8,61.7,29.92,East,87,0.0,7.8,38,0.00,,---,0.00,VWS V12.07,2013-09-02 20:43:00,
2013-09-02 13:48:00,90.9,62.0,29.91,East,87,0.0,0.0,38,0.00,,---,0.00,VWS V12.07,2013-09-02 20:48:00,
2013-09-02 13:53:00,91.0,61.3,29.91,East,87,0.0,0.0,37,0.00,,---,0.00,VWS V12.07,2013-09-02 20:53:00,
2013-09-02 13:58:00,91.2,61.5,29.91,East,87,0.0,0.0,37,0.00,,---,0.00,VWS V12.07,2013-09-02 20:58:00,
2013-09-02 14:00:00,91.2,61.5,29.91,East,87,0.0,0.0,37,0.00,,---,0.00,VWS V12.07,2013-09-02 21:00:00,
2013-09-02 14:03:00,91.7,61.2,29.91,East,87,0.0,0.0,36,0.00,,---,0.00,VWS V12.07,2013-09-02 21:03:00,
2013-09-02 14:08:00,91.7,61.9,29.91,East,87,0.0,0.0,37,0.00,,---,0.00,VWS V12.07,2013-09-02 21:08:00,
2013-09-02 14:13:00,91.8,61.8,29.91,East,87,0.0,0.0,37,0.00,,---,0.00,VWS V12.07,2013-09-02 21:13:00,
2013-09-02 14:18:00,92.1,62.2,29.91,East,87,0.0,0.0,37,0.00,,---,0.00,VWS V12.07,2013-09-02 21:18:00,
2013-09-02 14:23:00,92.2,61.7,29.90,WNW,284,3.4,5.2,36,0.00,,---,0.00,VWS V12.07,2013-09-02 21:23:00,
2013-09-02 14:28:00,91.8,61.3,29.90,WNW,284,0.0,5.2,36,0.00,,---,0.00,VWS V12.07,2013-09-02 21:28:00,
2013-09-02 14:30:00,91.9,61.4,29.90,WNW,284,0.0,5.2,36,0.00,,---,0.00,VWS V12.07,2013-09-02 21:30:00,
2013-09-02 14:33:00,92.0,61.5,29.90,WSW,256,0.0,5.2,36,0.00,,---,0.00,VWS V12.07,2013-09-02 21:33:00,
2013-09-02 14:38:00,92.4,61.4,29.89,SW,224,0.0,5.2,36,0.00,,---,0.00,VWS V12.07,2013-09-02 21:38:00,
2013-09-02 14:43:00,92.8,60.9,29.89,NE,42,0.0,5.2,35,0.00,,---,0.00,VWS V12.07,2013-09-02 21:43:00,
2013-09-02 14:48:00,92.6,60.7,29.89,NE,42,0.0,4.7,35,0.00,,---,0.00,VWS V12.07,2013-09-02 21:48:00,
2013-09-02 14:53:00,92.5,61.0,29.89,NE,42,0.0,4.7,35,0.00,,---,0.00,VWS V12.07,2013-09-02 21:53:00,
2013-09-02 14:58:00,92.6,60.7,29.89,NNE,32,3.4,4.7,35,0.00,,---,0.00,VWS V12.07,2013-09-02 21:58:00,
2013-09-02 15:00:00,92.6,60.7,29.89,East,83,3.3,4.7,35,0.00,,---,0.00,VWS V12.07,2013-09-02 22:00:00,
2013-09-02 15:03:00,92.8,60.8,29.88,ENE,59,0.0,5.0,34,0.00,,---,0.00,VWS V12.07,2013-09-02 22:03:00,
2013-09-02 15:08:00,92.7,60.7,29.88,ENE,72,0.0,7.6,35,0.00,,---,0.00,VWS V12.07,2013-09-02 22:08:00,
2013-09-02 15:13:00,92.7,60.2,29.88,NE,49,0.0,7.7,34,0.00,,---,0.00,VWS V12.07,2013-09-02 22:13:00,
2013-09-02 15:18:00,92.8,60.4,29.87,ENE,66,0.0,7.7,34,0.00,,---,0.00,VWS V12.07,2013-09-02 22:18:00,
2013-09-02 15:23:00,93.1,61.0,29.87,ENE,62,5.0,7.8,34,0.00,,---,0.00,VWS V12.07,2013-09-02 22:23:00,
2013-09-02 15:28:00,92.8,60.6,29.87,ENE,76,3.0,7.8,34,0.00,,---,0.00,VWS V12.07,2013-09-02 22:28:00,
2013-09-02 15:30:00,93.0,61.0,29.87,East,97,6.8,7.8,35,0.00,,---,0.00,VWS V12.07,2013-09-02 22:30:00,
2013-09-02 15:33:00,92.8,61.1,29.87,NE,51,0.0,7.8,35,0.00,,---,0.00,VWS V12.07,2013-09-02 22:33:00,
2013-09-02 15:38:00,93.0,61.4,29.87,NE,38,0.0,7.8,35,0.00,,---,0.00,VWS V12.07,2013-09-02 22:38:00,
2013-09-02 15:43:00,93.2,60.9,29.87,NE,45,0.0,7.8,34,0.00,,---,0.00,VWS V12.07,2013-09-02 22:43:00,
2013-09-02 15:48:00,93.4,60.7,29.87,NNE,25,0.0,7.6,34,0.00,,---,0.00,VWS V12.07,2013-09-02 22:48:00,
2013-09-02 15:53:00,93.4,60.5,29.87,ENE,77,0.0,7.8,34,0.00,,---,0.00,VWS V12.07,2013-09-02 22:53:00,
2013-09-02 15:58:00,93.3,60.6,29.87,East,83,0.0,7.8,34,0.00,,---,0.00,VWS V12.07,2013-09-02 22:58:00,
2013-09-02 16:00:00,93.2,60.4,29.87,East,83,0.0,7.8,34,0.00,,---,0.00,VWS V12.07,2013-09-02 23:00:00,
2013-09-02 16:03:00,93.0,60.5,29.86,ENE,72,3.4,7.8,34,0.00,,---,0.00,VWS V12.07,2013-09-02 23:03:00,
2013-09-02 16:08:00,93.0,60.5,29.86,ENE,60,0.0,7.8,34,0.00,,---,0.00,VWS V12.07,2013-09-02 23:08:00,
2013-09-02 16:13:00,93.2,60.7,29.87,NE,53,7.2,7.8,34,0.00,,---,0.00,VWS V12.07,2013-09-02 23:13:00,
2013-09-02 16:18:00,93.1,60.5,29.87,NE,52,0.0,8.0,34,0.00,,---,0.00,VWS V12.07,2013-09-02 23:18:00,
2013-09-02 16:23:00,93.1,60.3,29.87,NE,34,0.0,8.2,34,0.00,,---,0.00,VWS V12.07,2013-09-02 23:23:00,
2013-09-02 16:28:00,93.2,60.7,29.87,NE,34,0.0,8.2,34,0.00,,---,0.00,VWS V12.07,2013-09-02 23:28:00,
2013-09-02 16:30:00,93.2,60.8,29.87,NE,34,0.0,8.2,34,0.00,,---,0.00,VWS V12.07,2013-09-02 23:30:00,
2013-09-02 16:33:00,92.9,60.4,29.87,NE,39,0.0,8.2,34,0.00,,---,0.00,VWS V12.07,2013-09-02 23:33:00,
2013-09-02 16:38:00,92.6,60.3,29.87,NE,42,0.0,8.2,34,0.00,,---,0.00,VWS V12.07,2013-09-02 23:38:00,
2013-09-02 16:43:00,93.0,60.5,29.87,NE,42,0.0,8.2,34,0.00,,---,0.00,VWS V12.07,2013-09-02 23:43:00,
2013-09-02 16:48:00,93.1,60.3,29.87,ENE,73,0.0,5.2,34,0.00,,---,0.00,VWS V12.07,2013-09-02 23:48:00,
2013-09-02 16:53:00,93.1,60.6,29.87,ENE,73,0.0,5.2,34,0.00,,---,0.00,VWS V12.07,2013-09-02 23:53:00,
2013-09-02 16:58:00,93.2,59.9,29.87,ENE,73,0.0,5.2,33,0.00,,---,0.00,VWS V12.07,2013-09-02 23:58:00,
2013-09-02 17:00:00,93.0,59.8,29.87,ENE,73,0.0,5.2,33,0.00,,---,0.00,VWS V12.07,2013-09-03 00:00:00,
2013-09-02 17:03:00,93.8,59.8,29.87,ENE,73,0.0,5.2,32,0.00,,---,0.00,VWS V12.07,2013-09-03 00:03:00,
2013-09-02 17:08:00,94.2,59.8,29.87,ENE,73,0.0,5.2,32,0.00,,---,0.00,VWS V12.07,2013-09-03 00:08:00,
2013-09-02 17:13:00,94.1,60.1,29.87,ENE,73,0.0,5.2,32,0.00,,---,0.00,VWS V12.07,2013-09-03 00:13:00,
2013-09-02 17:18:00,93.4,60.3,29.87,ENE,73,0.0,5.2,33,0.00,,---,0.00,VWS V12.07,2013-09-03 00:18:00,
2013-09-02 17:23:00,93.2,60.7,29.87,ENE,73,0.0,5.2,34,0.00,,---,0.00,VWS V12.07,2013-09-03 00:23:00,
2013-09-02 17:28:00,92.2,60.1,29.87,WNW,295,0.0,5.3,34,0.00,,---,0.00,VWS V12.07,2013-09-03 00:28:00,
2013-09-02 17:30:00,92.4,60.3,29.87,WNW,295,0.0,5.3,34,0.00,,---,0.00,VWS V12.07,2013-09-03 00:30:00,
2013-09-02 17:33:00,91.6,60.0,29.87,ENE,58,0.0,5.7,35,0.00,,---,0.00,VWS V12.07,2013-09-03 00:33:00,
2013-09-02 17:38:00,91.3,60.4,29.87,ENE,58,0.0,5.7,36,0.00,,---,0.00,VWS V12.07,2013-09-03 00:38:00,
2013-09-02 17:43:00,90.8,60.2,29.88,SE,139,0.0,5.9,36,0.00,,---,0.00,VWS V12.07,2013-09-03 00:43:00,
2013-09-02 17:48:00,88.8,61.6,29.87,South,183,8.1,23.5,40,0.00,,---,0.00,VWS V12.07,2013-09-03 00:48:00,
2013-09-02 17:53:00,85.5,61.7,29.88,WSW,243,16.3,29.6,45,0.00,,---,0.00,VWS V12.07,2013-09-03 00:53:00,
2013-09-02 17:58:00,82.3,61.5,29.89,WSW,248,12.1,29.6,49,0.00,,---,0.00,VWS V12.07,2013-09-03 00:58:00,
2013-09-02 18:00:00,82.3,61.3,29.89,WSW,248,12.6,29.6,49,0.00,,---,0.00,VWS V12.07,2013-09-03 01:00:00,
2013-09-02 18:03:00,80.2,59.3,29.89,West,269,13.5,29.8,49,0.00,,---,0.00,VWS V12.07,2013-09-03 01:03:00,
2013-09-02 18:08:00,79.7,58.5,29.89,WSW,249,11.1,29.8,48,0.00,,---,0.00,VWS V12.07,2013-09-03 01:08:00,
2013-09-02 18:13:00,79.3,58.5,29.88,WSW,252,13.4,29.8,49,0.00,,---,0.00,VWS V12.07,2013-09-03 01:13:00,
2013-09-02 18:18:00,78.9,58.2,29.88,NW,308,12.1,29.8,49,0.00,,---,0.00,VWS V12.07,2013-09-03 01:18:00,
2013-09-02 18:23:00,79.0,58.2,29.88,WNW,298,7.5,29.8,49,0.00,,---,0.00,VWS V12.07,2013-09-03 01:23:00,
2013-09-02 18:28:00,79.4,57.5,29.88,WNW,302,5.0,29.8,47,0.00,,---,0.00,VWS V12.07,2013-09-03 01:28:00,
2013-09-02 18:30:00,79.7,57.9,29.88,West,276,10.4,29.8,47,0.00,,---,0.00,VWS V12.07,2013-09-03 01:30:00,
2013-09-02 18:33:00,79.7,58.2,29.88,West,281,7.3,29.8,48,0.00,,---,0.00,VWS V12.07,2013-09-03 01:33:00,
2013-09-02 18:38:00,79.4,57.8,29.89,NNW,330,5.8,29.8,48,0.00,,---,0.00,VWS V12.07,2013-09-03 01:38:00,
2013-09-02 18:43:00,79.1,58.2,29.89,WNW,288,4.7,29.8,49,0.00,,---,0.00,VWS V12.07,2013-09-03 01:43:00,
2013-09-02 18:48:00,79.0,58.5,29.89,East,94,0.0,19.3,50,0.00,,---,0.00,VWS V12.07,2013-09-03 01:48:00,
2013-09-02 18:53:00,78.4,57.8,29.89,East,82,0.0,19.3,49,0.00,,---,0.00,VWS V12.07,2013-09-03 01:53:00,
2013-09-02 18:59:00,78.5,57.7,29.89,NNE,17,0.0,19.3,49,0.00,,---,0.00,VWS V12.07,2013-09-03 01:59:00,
2013-09-02 19:00:00,78.7,57.9,29.89,NNE,17,0.0,19.3,49,0.00,,---,0.00,VWS V12.07,2013-09-03 02:00:00,
2013-09-02 19:04:00,78.7,58.1,29.89,NNE,17,0.0,19.3,49,0.00,,---,0.00,VWS V12.07,2013-09-03 02:04:00,
2013-09-02 19:09:00,78.3,59.1,29.89,NE,41,8.7,19.3,52,0.00,,---,0.00,VWS V12.07,2013-09-03 02:09:00,
2013-09-02 19:14:00,78.1,59.2,29.89,NNE,32,0.0,19.3,52,0.00,,---,0.00,VWS V12.07,2013-09-03 02:14:00,
2013-09-02 19:19:00,77.9,59.4,29.89,WNW,287,5.0,19.3,53,0.00,,---,0.00,VWS V12.07,2013-09-03 02:19:00,
2013-09-02 19:24:00,78.0,59.5,29.89,WNW,294,0.0,19.3,53,0.00,,---,0.00,VWS V12.07,2013-09-03 02:24:00,
2013-09-02 19:29:00,78.0,59.9,29.90,North,359,0.0,19.3,54,0.00,,---,0.00,VWS V12.07,2013-09-03 02:29:00,
2013-09-02 19:30:00,77.9,59.7,29.90,North,3,4.1,11.6,54,0.00,,---,0.00,VWS V12.07,2013-09-03 02:30:00,
2013-09-02 19:34:00,77.8,59.9,29.90,NW,323,3.5,19.3,54,0.00,,---,0.00,VWS V12.07,2013-09-03 02:34:00,
2013-09-02 19:39:00,77.9,59.4,29.90,WNW,302,2.9,19.3,53,0.00,,---,0.00,VWS V12.07,2013-09-03 02:39:00,
2013-09-02 19:44:00,78.1,58.7,29.90,NNE,13,0.0,19.3,51,0.00,,---,0.00,VWS V12.07,2013-09-03 02:44:00,
2013-09-02 19:49:00,78.7,58.5,29.90,West,276,5.5,9.3,50,0.00,,---,0.00,VWS V12.07,2013-09-03 02:49:00,
2013-09-02 19:54:00,78.9,59.2,29.90,WNW,300,3.2,9.3,51,0.00,,---,0.00,VWS V12.07,2013-09-03 02:54:00,
2013-09-02 19:59:00,78.8,59.6,29.90,NW,312,0.0,9.3,52,0.00,,---,0.00,VWS V12.07,2013-09-03 02:59:00,
2013-09-02 20:00:00,78.8,59.5,29.90,NW,312,0.0,9.3,52,0.00,,---,0.00,VWS V12.07,2013-09-03 03:00:00,
2013-09-02 20:04:00,78.4,59.5,29.91,NW,312,0.0,9.3,52,0.00,,---,0.00,VWS V12.07,2013-09-03 03:04:00,
2013-09-02 20:09:00,78.2,59.8,29.91,WSW,257,4.3,9.3,53,0.00,,---,0.00,VWS V12.07,2013-09-03 03:09:00,
2013-09-02 20:14:00,78.3,60.4,29.91,West,267,0.0,9.3,54,0.00,,---,0.00,VWS V12.07,2013-09-03 03:14:00,
2013-09-02 20:19:00,77.9,59.8,29.90,West,267,0.0,9.3,54,0.00,,---,0.00,VWS V12.07,2013-09-03 03:19:00,
2013-09-02 20:24:00,77.8,59.6,29.91,West,267,0.0,9.3,54,0.00,,---,0.00,VWS V12.07,2013-09-03 03:24:00,
2013-09-02 20:29:00,78.1,59.8,29.91,West,267,0.0,9.3,53,0.00,,---,0.00,VWS V12.07,2013-09-03 03:29:00,
2013-09-02 20:30:00,78.1,59.9,29.91,West,267,0.0,5.6,54,0.00,,---,0.00,VWS V12.07,2013-09-03 03:30:00,
2013-09-02 20:34:00,78.2,59.8,29.91,West,267,0.0,9.3,53,0.00,,---,0.00,VWS V12.07,2013-09-03 03:34:00,
2013-09-02 20:39:00,78.2,60.2,29.91,West,267,0.0,9.3,54,0.00,,---,0.00,VWS V12.07,2013-09-03 03:39:00,
2013-09-02 20:44:00,78.3,59.9,29.91,West,267,0.0,9.3,53,0.00,,---,0.00,VWS V12.07,2013-09-03 03:44:00,
2013-09-02 20:49:00,78.1,60.1,29.92,West,267,0.0,0.0,54,0.00,,---,0.00,VWS V12.07,2013-09-03 03:49:00,
2013-09-02 20:54:00,78.1,60.5,29.92,West,267,0.0,0.0,55,0.00,,---,0.00,VWS V12.07,2013-09-03 03:54:00,
2013-09-02 20:59:00,78.0,60.4,29.92,West,267,0.0,0.0,55,0.00,,---,0.00,VWS V12.07,2013-09-03 03:59:00,
2013-09-02 21:00:00,78.1,60.4,29.92,West,267,0.0,0.0,55,0.00,,---,0.00,VWS V12.07,2013-09-03 04:00:00,
2013-09-02 21:01:00,77.9,60.5,29.92,West,267,0.0,0.0,55,0.00,,---,0.00,VWS V12.07,2013-09-03 04:01:00,
2013-09-02 21:02:00,78.1,60.7,29.92,West,267,0.0,0.0,55,0.00,,---,0.00,VWS V12.07,2013-09-03 04:02:00,
2013-09-02 21:07:00,77.8,60.6,29.91,West,267,0.0,0.0,55,0.00,,---,0.00,VWS V12.07,2013-09-03 04:07:00,
2013-09-02 21:12:00,77.5,60.9,29.92,West,267,0.0,0.0,57,0.00,,---,0.00,VWS V12.07,2013-09-03 04:12:00,
2013-09-02 21:17:00,77.4,60.9,29.92,West,267,0.0,0.0,57,0.00,,---,0.00,VWS V12.07,2013-09-03 04:17:00,
2013-09-02 21:22:00,77.5,61.4,29.92,NNW,339,2.8,5.5,58,0.00,,---,0.00,VWS V12.07,2013-09-03 04:22:00,
2013-09-02 21:27:00,77.1,60.8,29.91,NNW,339,0.0,5.5,57,0.00,,---,0.00,VWS V12.07,2013-09-03 04:27:00,
2013-09-02 21:30:00,77.4,61.1,29.92,NNW,339,0.0,5.5,57,0.00,,---,0.00,VWS V12.07,2013-09-03 04:30:00,
2013-09-02 21:32:00,77.2,61.2,29.91,NNW,339,0.0,5.5,58,0.00,,---,0.00,VWS V12.07,2013-09-03 04:32:00,
2013-09-02 21:37:00,77.1,61.3,29.92,NNW,339,0.0,5.5,58,0.00,,---,0.00,VWS V12.07,2013-09-03 04:37:00,
2013-09-02 21:42:00,76.9,61.3,29.92,NNW,339,0.0,5.5,59,0.00,,---,0.00,VWS V12.07,2013-09-03 04:42:00,
2013-09-02 21:47:00,76.8,61.5,29.92,NNW,339,0.0,5.5,59,0.00,,---,0.00,VWS V12.07,2013-09-03 04:47:00,
2013-09-02 21:52:00,76.7,61.5,29.92,NNW,339,0.0,0.0,59,0.00,,---,0.00,VWS V12.07,2013-09-03 04:52:00,
2013-09-02 21:57:00,76.7,61.6,29.92,NNW,339,0.0,0.0,60,0.00,,---,0.00,VWS V12.07,2013-09-03 04:57:00,
2013-09-02 22:00:00,76.7,61.7,29.92,NNW,339,0.0,0.0,60,0.00,,---,0.00,VWS V12.07,2013-09-03 05:00:00,
2013-09-02 22:02:00,76.4,61.5,29.92,NNW,339,0.0,0.0,60,0.00,,---,0.00,VWS V12.07,2013-09-03 05:02:00,
2013-09-02 22:07:00,76.5,61.7,29.92,NNW,339,0.0,0.0,60,0.00,,---,0.00,VWS V12.07,2013-09-03 05:07:00,
2013-09-02 22:12:00,76.5,61.5,29.91,NNW,339,0.0,0.0,60,0.00,,---,0.00,VWS V12.07,2013-09-03 05:12:00,
2013-09-02 22:17:00,76.3,61.6,29.91,NNW,339,0.0,0.0,60,0.00,,---,0.00,VWS V12.07,2013-09-03 05:17:00,
2013-09-02 22:22:00,76.0,61.5,29.92,NNW,339,0.0,0.0,61,0.00,,---,0.00,VWS V12.07,2013-09-03 05:22:00,
2013-09-02 22:27:00,76.0,61.7,29.92,NNW,339,0.0,0.0,61,0.00,,---,0.00,VWS V12.07,2013-09-03 05:27:00,
2013-09-02 22:30:00,75.9,61.7,29.92,NNW,339,0.0,0.0,61,0.00,,---,0.00,VWS V12.07,2013-09-03 05:30:00,
2013-09-02 22:32:00,75.7,61.6,29.92,NNW,339,0.0,0.0,62,0.00,,---,0.00,VWS V12.07,2013-09-03 05:32:00,
2013-09-02 22:37:00,75.3,61.6,29.92,NNW,339,0.0,0.0,62,0.00,,---,0.00,VWS V12.07,2013-09-03 05:37:00,
2013-09-02 22:42:00,75.1,61.8,29.92,NNW,339,0.0,0.0,63,0.00,,---,0.00,VWS V12.07,2013-09-03 05:42:00,
2013-09-02 22:47:00,74.7,61.8,29.92,NNW,339,0.0,0.0,64,0.00,,---,0.00,VWS V12.07,2013-09-03 05:47:00,
2013-09-02 22:52:00,74.5,61.9,29.92,NNW,339,0.0,0.0,65,0.00,,---,0.00,VWS V12.07,2013-09-03 05:52:00,
2013-09-02 22:57:00,74.5,62.4,29.92,NNW,339,0.0,0.0,66,0.00,,---,0.00,VWS V12.07,2013-09-03 05:57:00,
2013-09-02 23:00:00,74.3,62.2,29.92,NNW,339,0.0,0.0,66,0.00,,---,0.00,VWS V12.07,2013-09-03 06:00:00,
2013-09-02 23:02:00,74.2,62.5,29.92,NNW,339,0.0,0.0,67,0.00,,---,0.00,VWS V12.07,2013-09-03 06:02:00,
2013-09-02 23:07:00,74.0,62.7,29.92,NNW,339,0.0,0.0,68,0.00,,---,0.00,VWS V12.07,2013-09-03 06:07:00,
2013-09-02 23:12:00,73.9,62.7,29.92,NNW,339,0.0,0.0,68,0.00,,---,0.00,VWS V12.07,2013-09-03 06:12:00,
2013-09-02 23:17:00,73.6,62.5,29.93,NNW,339,0.0,0.0,68,0.00,,---,0.00,VWS V12.07,2013-09-03 06:17:00,
2013-09-02 23:22:00,73.6,62.6,29.92,NNW,339,0.0,0.0,68,0.00,,---,0.00,VWS V12.07,2013-09-03 06:22:00,
2013-09-02 23:27:00,73.4,62.5,29.92,NNW,339,0.0,0.0,69,0.00,,---,0.00,VWS V12.07,2013-09-03 06:27:00,
2013-09-02 23:30:00,73.4,62.4,29.92,NNW,339,0.0,0.0,68,0.00,,---,0.00,VWS V12.07,2013-09-03 06:30:00,
2013-09-02 23:32:00,73.2,61.7,29.93,NNW,339,0.0,0.0,67,0.00,,---,0.00,VWS V12.07,2013-09-03 06:32:00,
2013-09-02 23:37:00,73.3,61.6,29.93,NNW,339,0.0,0.0,67,0.00,,---,0.00,VWS V12.07,2013-09-03 06:37:00,
2013-09-02 23:42:00,73.1,61.4,29.93,NNW,339,0.0,0.0,67,0.00,,---,0.00,VWS V12.07,2013-09-03 06:42:00,
2013-09-02 23:47:00,73.0,61.4,29.94,NNW,339,0.0,0.0,67,0.00,,---,0.00,VWS V12.07,2013-09-03 06:47:00,
2013-09-02 23:52:00,72.8,61.4,29.94,NNW,339,0.0,0.0,68,0.00,,---,0.00,VWS V12.07,2013-09-03 06:52:00,
2013-09-02 23:57:00,72.4,61.1,29.93,NNW,339,0.0,0.0,68,0.00,,---,0.00,VWS V12.07,2013-09-03 06:57:00,